GPS BIIR-11

Last updated on Tue Sep 22 2026 00:03:02 GMT+0000 (Coordinated Universal Time)

1 28190U 04009A 26264.21380683 .00000024 00000+0 00000+0 0 9998 2 28190 54.7565 271.7988 0118163 176.7002 251.3166 2.00573541164876
UTC large
Height (km)
Speed (km/s)
/
Latitude / Longitude
Inclination (degrees)
Orbital Period (minutes)
Azimuth
Elevation
Range (km)
Doppler Factor

Next 0 passes for location: London (51.5072 / 0.1276)

No passes found over London.
GPS BIIR-11